Location: Recife
(8.0585°S, 34.8848°W)
Time: 13:18:07
(UTC-03:00)

Tiros 1 - Pass Details

Date: 16 April 2026
Orbit: 618 x 648 km, 48.4° (Epoch: 11 May)

Event Time Altitude Azimuth Distance (km) Brightness Sun altitude
Rises 07:29:31 0° 249° (WSW) 2,887 9.9 29.9°
Reaches altitude 10° 07:32:41 10° 271° (W) 1,975 9.2 30.7°
Maximum altitude 07:35:20 15° 308° (NW) 1,645 9.1 31.3°
Drops below altitude 10° 07:37:59 10° 344° (NNW) 1,966 9.7 32.0°
Sets 07:41:08 0° 7° (N) 2,868 10.8 32.7°
